User: anonymous   Login
Location: ASU Dark Sky Observatory
(36.2504°N, 81.4125°W)
Time: 17:44:59
(UTC-04:00)
Language:

ETS-7 - Orbit

View from above orbital plane
View from above orbital plane
View from above satellite
View from above satellite

Ground track
Ground track

The orbit data is extracted from the following two-line orbital elements,

1 25064U 97074B   15243.18555189  .00065537  00000-0  27410-3 0  9994
2 25064 034.9468 209.4463 0003780 269.6950 169.2279 15.84389235990031
Epoch (UTC): 31 August 2015 04:27:11
Eccentricity: 0.0003780
inclination: 34.9468°
perigee height: 315 km
apogee height: 320 km
right ascension of ascending node: 209.4463°
argument of perigee: 269.6950°
revolutions per day: 15.84389235
mean anomaly at epoch: 169.2279°
orbit number at epoch: 99003

The dashed part of the orbit path shows where the satellite is in the earth's shadow,  

DLR